Theta_e
318 318 318 319 319 319 319 319 319 319 318 318 318 318 318 316 313 307 301 309 315 323 322 308 305 305 306 303 303 302 298 293 292 293 293 295 297 302 309 307 309 310 312 315 318
317 317 318 319 319 319 319 320 319 320 320 320 319 318 317 314 304 303 310 319 319 321 305 303 302 304 302 300 301 300 296 292 293 294 294 294 295 295 298 302 305 307 312 310 308
316 317 317 318 319 320 320 321 321 320 321 321 319 319 316 310 301 301 318 317 318 314 305 304 303 302 298 299 297 296 293 294 293 296 294 294 294 295 298 296 301 303 307 306 307
316 316 317 317 318 319 320 321 321 320 321 319 315 312 311 303 291 304 315 314 315 308 304 302 301 298 296 294 295 293 294 294 294 294 294 293 294 294 295 299 299 306 308 305 305
315 315 316 317 318 318 320 321 320 320 320 316 312 313 307 301 298 306 311 309 307 305 302 301 299 297 294 294 296 294 293 294 294 294 293 293 291 293 295 299 306 304 304 303 301
315 315 316 317 317 318 319 320 319 319 318 317 314 313 304 295 304 305 303 306 306 303 302 302 299 300 296 294 295 295 295 293 293 293 293 292 292 290 293 300 303 301 300 298 297
314 314 315 316 317 317 318 319 317 317 315 315 312 304 301 297 304 304 304 305 305 304 301 301 301 301 299 295 296 295 293 294 293 292 292 293 290 290 293 296 301 297 296 296 295
314 313 314 316 316 316 316 317 315 315 315 316 311 306 297 303 306 302 304 306 308 304 302 302 305 301 298 298 296 294 295 292 293 292 291 293 292 292 295 298 300 298 296 295 292
313 313 314 315 315 314 314 315 313 314 312 310 306 304 296 307 300 301 301 301 304 305 303 302 301 297 298 296 295 295 293 291 292 290 289 290 292 292 294 299 299 299 297 294 290
313 313 313 314 314 313 312 314 309 311 305 301 301 302 298 294 298 299 301 301 301 302 301 299 299 295 293 296 291 288 288 288 288 289 288 288 288 292 291 296 298 298 296 294 291
312 313 313 313 313 310 309 307 302 300 298 294 293 293 294 298 299 298 298 298 301 297 294 292 293 288 287 287 288 289 287 286 287 286 285 287 286 289 291 291 295 296 295 293 290
312 312 312 313 311 308 307 299 296 298 291 293 294 294 295 295 293 296 300 295 293 291 290 293 286 286 286 287 285 286 284 286 287 285 285 286 285 290 290 289 292 294 294 293 290
311 312 311 312 308 307 302 299 303 301 294 291 292 293 293 294 290 292 295 293 290 288 289 289 285 286 285 286 286 285 283 283 282 285 284 284 290 288 285 286 288 291 294 293 290
311 311 309 309 306 301 299 301 303 300 291 289 292 293 294 293 290 293 293 293 292 287 286 286 286 285 285 284 285 282 284 283 282 283 284 284 285 290 285 285 285 287 289 290 290
310 310 307 307 301 298 298 300 302 300 286 290 290 297 294 291 289 293 293 294 287 286 288 284 285 284 284 282 285 284 284 283 282 282 281 281 282 290 284 286 286 287 288 289 290
310 308 304 301 301 297 299 301 300 292 286 285 289 287 290 290 289 290 291 293 291 288 288 285 287 286 283 284 285 285 282 282 282 283 285 273 279 288 289 287 287 287 287 288 288
309 305 301 298 298 299 301 301 289 286 287 287 286 287 285 285 288 287 285 284 285 289 284 285 284 284 284 283 285 285 287 287 285 286 285 271 277 286 288 286 287 287 287 287 288
306 300 299 298 299 300 301 295 286 280 283 285 286 285 285 284 285 286 285 285 285 284 282 284 288 284 283 282 281 281 283 285 277 279 280 270 279 288 287 285 285 284 285 285 286
304 303 302 299 299 299 298 286 288 283 286 285 285 285 286 284 284 285 283 283 283 284 285 283 284 283 282 282 282 281 285 280 277 266 274 281 283 288 285 284 284 284 284 285 286
301 302 300 298 298 298 288 285 285 285 287 286 285 282 286 283 284 284 282 284 283 284 283 280 283 281 281 282 282 282 282 283 282 279 277 280 278 283 288 288 284 284 285 286 286
301 303 300 297 298 293 286 285 282 286 287 285 283 283 282 285 281 282 282 283 285 283 283 281 283 285 280 281 283 280 281 279 280 279 278 277 283 289 287 286 286 284 283 284 281
300 293 300 297 290 284 285 282 286 286 289 286 286 283 283 281 281 283 282 283 286 285 282 283 280 281 287 280 282 281 282 282 280 279 277 274 278 283 285 280 278 282 283 282 278
298 296 301 300 288 285 283 285 286 286 285 285 284 285 283 282 284 282 283 285 286 284 283 283 283 282 286 280 279 278 280 279 278 278 277 277 281 281 277 279 280 278 281 279 277
299 290 294 292 288 289 286 284 285 287 286 286 285 285 283 280 280 282 282 284 286 285 287 284 280 282 282 287 282 278 278 279 280 278 279 279 282 285 286 285 285 281 277 275 274
293 289 287 287 290 287 287 284 283 284 286 286 284 284 283 280 280 279 282 283 284 286 284 283 279 276 279 279 277 277 277 278 275 278 277 281 280 283 285 284 278 273 274 275 274
298 295 287 286 285 286 286 285 284 283 286 284 283 284 283 282 285 283 282 282 283 284 283 281 279 272 274 276 275 274 277 278 276 277 277 278 277 283 282 275 277 276 274 273 272
291 292 296 286 286 289 290 286 286 286 286 286 287 285 282 285 286 285 285 283 283 283 282 279 278 275 277 271 271 276 277 279 277 277 278 275 283 277 280 279 277 274 272 272 272
Wind_Speed
13 13 13 12 11 11 10 9 8 8 8 7 5 5 5 6 5 11 12 9 11 16 10 4 2 4 4 6 7 1 4 4 4 4 4 1 3 3 3 7 7 4 4 6 5
15 14 13 13 12 10 10 9 9 8 8 6 5 3 4 2 3 15 3 19 15 11 2 1 4 5 6 5 5 5 3 3 1 1 2 3 1 2 4 7 6 7 7 6 6
15 15 14 14 12 12 10 8 8 8 7 5 2 1 2 2 4 7 15 23 17 7 0 2 4 5 7 4 7 5 4 6 2 2 1 3 3 2 6 3 2 4 6 4 3
15 15 15 13 14 11 11 10 9 9 6 6 4 6 3 2 6 7 21 22 14 1 1 4 3 5 5 6 3 8 4 1 3 4 1 2 3 3 1 2 2 5 4 4 5
16 15 15 14 12 11 12 11 10 10 9 8 5 2 0 12 6 12 20 15 3 3 5 5 6 5 6 7 7 10 4 5 4 6 6 2 1 2 4 4 5 5 5 5 5
17 16 14 13 12 11 11 11 11 10 8 6 4 2 3 23 5 13 14 9 12 6 9 7 6 13 11 5 5 4 8 5 4 4 3 3 4 3 7 4 7 5 5 5 5
16 16 15 14 13 10 9 10 9 10 7 9 7 4 19 9 3 12 11 6 7 6 7 5 3 3 6 10 3 5 5 2 4 5 2 4 6 7 5 5 8 7 6 6 5
16 17 16 14 14 12 9 8 5 8 6 1 4 3 9 3 4 15 15 2 10 7 6 3 8 12 5 9 4 1 2 3 4 6 2 3 6 5 3 14 14 12 10 8 5
17 16 15 14 12 12 8 4 9 6 8 5 4 4 5 4 7 8 9 7 8 3 8 5 6 7 3 3 4 5 1 3 2 2 4 4 10 6 4 11 14 13 11 8 5
17 17 15 14 15 12 3 2 8 6 8 1 5 2 8 8 6 8 6 6 6 3 3 9 7 5 4 3 2 1 1 3 6 4 3 10 22 13 9 12 14 12 11 9 8
18 16 16 15 15 13 2 1 3 8 15 7 2 5 5 12 4 12 7 4 3 9 6 7 7 7 6 5 3 1 2 5 3 5 8 9 18 18 12 13 13 12 12 11 9
20 19 17 13 10 9 6 8 2 2 10 6 3 3 2 4 6 22 13 5 8 6 4 5 8 2 3 3 1 1 4 5 8 1 7 11 27 20 10 11 15 13 13 11 9
21 19 16 10 2 8 9 5 2 2 4 5 3 4 5 6 5 13 11 3 7 7 9 7 4 1 1 4 5 3 3 4 7 12 1 13 11 1 3 4 5 8 10 11 13
20 19 17 10 5 1 5 3 2 2 7 16 10 7 4 3 5 4 6 3 6 3 5 7 3 3 4 5 5 3 2 5 8 8 5 8 7 4 2 4 8 10 12 14 15
18 17 11 16 5 4 2 4 1 3 6 10 8 5 5 8 6 11 4 5 7 4 2 3 4 5 5 3 2 3 4 3 2 2 4 5 3 5 2 2 2 9 14 16 15
16 16 8 5 4 3 3 1 3 9 3 5 5 10 5 7 6 8 7 8 2 2 6 4 1 4 4 3 2 5 3 1 2 1 1 2 5 8 2 1 3 3 7 13 15
11 10 8 2 3 3 2 1 8 8 3 6 5 6 1 8 7 10 6 10 7 5 7 0 3 1 2 4 2 3 4 3 3 2 3 4 5 13 6 8 7 6 6 6 11
5 4 5 3 3 2 0 6 10 1 4 1 3 3 5 8 3 6 2 4 7 3 3 5 2 4 6 3 2 4 2 2 6 5 9 4 9 5 3 2 5 6 8 7 9
1 2 2 5 3 1 3 9 3 5 1 1 2 4 4 3 2 3 5 2 2 6 3 4 3 1 2 1 2 1 1 2 2 3 3 4 7 15 3 7 6 8 5 7 7
2 1 2 6 1 1 9 5 1 2 3 2 2 0 1 5 3 4 2 1 1 1 1 3 5 2 2 1 4 2 4 0 1 6 9 4 6 9 4 4 1 4 5 5 6
2 3 2 2 1 8 7 3 2 2 2 3 1 1 0 2 2 2 1 1 2 1 0 3 1 1 1 5 5 3 2 2 1 1 5 9 6 7 7 4 2 3 3 3 6
2 5 3 2 8 3 4 2 2 0 1 1 1 2 2 2 1 0 1 1 2 2 1 1 1 5 5 2 2 2 2 4 3 4 4 3 15 2 1 1 3 7 4 5 3
3 2 1 2 6 3 0 2 1 2 1 1 2 3 2 2 2 1 2 1 2 3 2 4 2 4 5 2 1 4 4 2 2 1 9 7 10 2 2 3 7 7 8 7 5
2 5 6 7 2 4 4 1 1 0 1 1 1 0 1 2 2 2 3 2 3 3 2 2 3 6 8 5 1 7 8 8 5 5 4 18 26 24 22 3 4 3 4 3 4
5 2 0 3 4 4 1 3 2 1 1 0 1 3 3 2 3 3 1 2 1 2 2 2 5 3 10 11 8 16 16 12 14 18 11 26 16 28 22 15 6 5 2 3 3
2 3 0 2 1 0 1 3 5 2 4 3 4 4 6 5 4 4 3 4 3 2 3 1 2 0 8 7 9 13 17 15 18 21 19 27 29 23 9 1 2 2 2 3 3
1 1 1 1 2 2 2 4 4 4 3 2 3 3 4 5 3 2 3 3 2 2 4 2 2 2 7 3 12 11 12 13 7 7 6 9 12 3 3 5 2 2 3 2 3
Wind_Direction
356 354 357 359 355 356 355 357 349 343 333 330 332 328 341 351 11 60 43 333 313 314 315 285 35 43 52 66 33 327 87 118 133 171 135 120 175 72 62 98 66 37 63 54 63
357 355 2 355 351 351 348 345 336 330 332 326 318 303 315 338 42 52 29 343 336 329 292 137 71 52 64 42 30 40 94 135 173 169 140 76 113 98 186 134 96 109 94 99 66
358 356 1 351 349 351 340 339 340 331 329 338 347 232 267 243 49 358 349 341 337 333 17 73 91 66 68 34 14 37 102 146 121 318 302 82 78 12 160 126 106 168 162 83 60
358 355 353 355 342 349 327 340 344 348 7 35 70 82 76 307 63 333 337 333 332 270 205 80 61 65 66 67 359 100 62 74 39 357 111 115 98 101 356 118 246 249 151 156 128
355 356 354 358 351 348 339 353 351 4 26 50 75 58 63 70 28 327 328 327 10 59 46 91 75 98 93 98 75 78 108 59 51 65 65 129 138 209 190 189 190 162 152 120 89
354 352 353 355 2 358 350 359 351 3 22 53 68 152 56 73 337 339 336 336 30 37 62 45 97 106 79 54 40 102 110 111 57 67 44 171 182 231 182 164 171 173 114 88 90
354 354 354 350 358 358 356 360 352 12 28 28 36 61 60 54 352 346 357 13 5 23 82 27 90 75 128 103 127 132 104 142 53 1 55 314 230 229 95 170 171 154 161 156 120
357 352 353 350 347 346 350 348 2 20 22 16 71 55 76 336 328 12 358 28 25 41 73 43 72 87 45 118 100 134 182 208 76 5 84 293 285 155 153 177 195 188 188 178 140
355 356 352 347 343 337 338 8 22 65 25 16 42 41 52 357 11 348 16 350 321 31 51 57 61 62 70 120 120 40 22 346 263 101 303 236 276 169 182 202 213 207 201 187 154
353 350 352 348 345 348 39 93 14 43 0 108 80 103 30 330 315 333 346 351 27 322 44 34 54 75 47 347 85 56 251 251 273 31 302 265 263 258 212 217 227 215 210 201 196
354 354 351 348 359 6 44 42 10 23 30 37 351 78 324 320 279 7 356 328 7 54 47 21 75 61 33 16 13 44 304 292 299 33 317 287 287 280 251 228 226 221 211 211 206
352 353 355 353 20 24 55 69 45 72 81 22 44 29 354 337 354 5 1 57 42 56 343 67 65 2 307 321 333 272 306 327 294 49 321 307 291 293 271 242 232 221 218 215 204
349 348 350 355 81 42 70 71 341 290 69 37 50 31 342 351 48 347 6 39 64 59 36 75 63 308 258 35 0 39 343 344 290 319 139 310 279 286 77 230 229 233 232 222 218
349 348 347 334 63 3 52 344 310 251 75 347 352 36 344 338 57 342 18 19 47 89 39 63 8 12 30 54 358 313 60 303 298 333 317 357 295 303 351 276 227 225 222 221 221
350 349 356 33 121 60 14 313 265 251 63 344 331 319 353 60 311 31 351 31 57 48 319 35 8 13 40 360 331 332 317 304 341 326 313 20 278 277 330 23 12 232 228 226 223
350 352 347 21 55 30 319 280 240 42 54 343 321 353 3 28 24 311 20 45 100 89 54 92 52 24 355 295 276 310 259 150 145 212 274 325 338 283 281 236 262 246 241 229 222
346 27 38 346 41 355 313 280 43 83 360 330 343 3 40 354 9 19 37 33 28 25 17 81 64 91 349 289 202 312 298 329 341 348 319 163 267 258 242 230 248 289 299 275 231
16 60 43 43 345 302 190 56 69 306 252 337 323 315 53 1 47 5 83 62 56 24 73 18 315 12 355 43 326 12 351 66 306 302 309 147 231 250 198 249 279 279 287 295 245
85 64 63 11 9 292 80 52 163 194 136 302 269 44 351 21 319 21 42 98 339 357 49 349 275 170 30 11 301 82 66 34 110 87 279 233 272 276 276 279 248 261 278 284 269
101 81 59 334 18 95 71 110 130 310 330 288 102 33 349 341 349 35 19 293 235 354 298 176 292 190 130 161 55 324 105 6 107 313 304 225 282 254 294 271 233 246 254 296 296
53 63 71 1 233 49 77 99 217 255 310 0 73 89 6 344 358 9 356 178 244 177 286 143 228 255 163 193 170 149 193 70 301 248 267 301 266 202 225 202 199 273 273 293 330
57 39 33 231 49 43 75 161 246 135 224 269 200 133 177 148 220 258 305 240 167 177 272 142 201 270 240 149 339 298 263 208 211 201 236 279 271 90 333 30 241 262 286 331 319
62 317 47 291 77 56 105 97 169 158 53 324 346 6 51 134 47 282 247 106 168 214 201 168 221 310 304 169 132 240 194 160 76 77 226 264 264 125 147 229 230 272 310 332 337
49 24 348 48 39 102 137 79 125 244 138 101 85 331 223 49 354 242 246 189 191 204 132 185 237 217 241 252 56 240 191 202 202 243 267 240 277 282 287 305 314 4 339 342 44
17 61 121 335 14 86 88 151 147 194 319 150 86 222 162 328 332 294 282 234 202 195 89 220 259 302 271 269 262 264 258 215 209 232 240 271 275 278 291 314 329 307 269 50 38
93 145 137 126 293 28 5 204 183 226 168 209 188 182 179 197 209 250 193 205 247 159 190 53 254 265 277 293 262 264 263 241 237 252 255 262 277 277 309 37 202 276 6 55 23
104 61 293 317 142 127 207 182 217 165 213 252 204 163 222 245 240 303 306 30 41 165 183 245 206 291 262 353 312 278 238 193 207 213 195 221 257 54 281 291 315 60 91 108 330